PEGASUS DEB

Satellite information

Favourite Embed

Satellite Type and Status

DEBRISIN ORBIT

Key statistics

Satellite PEGASUS DEB at a glance.

Uptime

11532

Days in orbit

Revolutions

≈ 14.3

Per day

Orbit

LEO

Low Earth Orbit

Inclination

81.8

Latest

Satellite identification and parameters

Extended collection of information and parameters for PEGASUS DEB.

Object identification

Identified? True

Debris? True

Object name: PEGASUS DEB

International designator: 1994-029AFF

Object number (NORAD): 39320

Object ID (CCSDS): 39320

Country: UNITED STATES OF AMERICA (US)

Current information (Y/N): Y

RCS size: SMALL

Orbital parameters

Period: 100.523 minutes

Inclination: 81.7579 deg

SMA: 7161.51 km

Apoapsis: 984.388 km

Periapsis: 582.362 km

RAAN: 276.5301 deg

Eccentricy: 0.02806853

Argument of periapsis: 219.8001 deg

Mean anomaly: 138.23 deg

Mean motion: 14.32503939 rev/day

Mean motion (dot): 0.00003053 rev/day2

B* drag term: 0.0007228166 1/REarth

Two-line elements (TLE)

Creation date: Dec. 7, 2025, 5:20 p.m.

Reference frame: TEME

Reference center: EARTH

Epoch: Dec. 7, 2025, 2:14 a.m. UTC

TLE line 0: 0 PEGASUS DEB

TLE line 1: 1 39320U 94029AFF 25341.09367985 .00003053 00000-0 72282-3 0 9998

TLE line 2: 2 39320 81.7579 276.5301 0280685 219.8001 138.2300 14.32503939699752

Live tracking on map

Real-time ground track for satellite PEGASUS DEB.

In-orbit conjunctions

A list of the most updated potential collisions computed for object PEGASUS DEB.

Target Orbit TCA Probability of collision Miss distance Type
METEOR 1-21 LEO 2025-10-23 01:23:30 0.0001012405 753.0 (m) PAYLOAD

Associated space launch

PEGASUS DEB was lifted into orbit during the mission ‘Pegasus HAPS | Space Test Experiments Platform 2 (STEP-2)’, on board a Pegasus HAPS space rocket.

The launch took place on May 19, 1994, 5:03 p.m. from Edwards Air Force Base.

For more information about the launch, click the button.

Launch to space Pegasus HAPS | Space Test Experiments Platform 2 (STEP-2)
Pegasus HAPS | Space Test Experiments Platform 2 (STEP-2)

Agency: N/A

Status: Launch Successful

Launch date: May 19, 1994, 5:03 p.m. UTC

Rocket: Pegasus HAPS

Launch pad: Edwards Air Force Base

Location: Air launch to orbit

...

Latest news about this satellite

There are no fresh news available about this satellite. Check back as we update our databases every day.


Newsletter sign-up

Weekly statistics, charts and insights to help you stay on top of the space industry.